[keps] orb07144.2l.amsat

Ray Hoad r.hoad at att.net
Thu May 24 19:20:12 PDT 2007


SB KEPS @ AMSAT  $ORB07144.N
2Line Orbital Elements 07144.AMSAT

HR AMSAT ORBITAL ELEMENTS FOR AMATEUR SATELLITES IN NASA FORMAT
FROM WA5QGD FORT WORTH,TX May 24, 2007
Send SUBSCRIBE KEPS/UNSUBSCRIBE KEPS to majordomo at amsat.org only
BID: ORB07144.N

DECODE 2-LINE ELSETS WITH THE FOLLOWING KEY:
1 AAAAAU 00  0  0 BBBBB.BBBBBBBB  .CCCCCCCC  00000-0  00000-0 0  DDDZ
2 AAAAA EEE.EEEE FFF.FFFF GGGGGGG HHH.HHHH III.IIII JJ.JJJJJJJJKKKKKZ
KEY: A-CATALOGNUM B-EPOCHTIME C-DECAY D-ELSETNUM E-INCLINATION F-RAAN
G-ECCENTRICITY H-ARGPERIGEE I-MNANOM J-MNMOTION K-ORBITNUM Z-CHECKSUM

TO ALL RADIO AMATEURS BT

AO-07
1 07530U 74089B   07143.64089497 -.00000028  00000-0  10000-3 0  8821
2 07530 101.5159 182.3702 0011801 304.9465 055.0498 12.53572514488044
AO-10
1 14129U 83058B   07144.74278278  .00000000  00000-0  10000-3 0  3822
2 14129 026.5453 275.3917 6061344 024.8668 354.9398 02.05869628180080
UO-11
1 14781U 84021B   07144.31769698  .00000271  00000-0  43582-4 0  3799
2 14781 098.1907 166.5592 0007951 245.9205 114.1168 14.79553403246207
RS-15
1 23439U 94085A   07143.94728400 -.00000039  00000-0  10597-3 0 00704
2 23439 064.8197 046.1186 0159953 195.1122 164.4990 11.27551746510960
FO-29
1 24278U 96046B   07143.94765267 -.00000036  00000-0 -29396-5 0 05181
2 24278 098.5490 106.8510 0351013 145.9995 216.4182 13.52930232531627
SO-33
1 25509U 98061B   07143.86889728 -.00000184  00000-0 -51176-4 0 09355
2 25509 031.4321 003.2366 0355803 214.8065 142.8799 14.28164932447776
AO-40
1 26609U 00072B   07140.47029464 -.00000131  00000-0  10000-3 0  8797
2 26609 005.3591 146.1098 7989377 318.3177 002.7570 01.25586965 30097
VO-52
1 28650U 05017B   07144.39955727 -.00000086  00000-0 -41683-5 0  6346
2 28650 097.8317 215.6473 0026740 333.6315 026.3504 14.81313602110897
PO-63
1 29712U 07001D   07144.78008633  .00000724  00000-0  10329-3 0  3906
2 29712 097.9215 204.2620 0013681 199.8704 160.1982 14.79691187 19874
AO-16
1 20439U 90005D   07144.53953899  .00000011  00000-0  19447-4 0   418
2 20439 098.1948 140.3999 0009925 258.4021 101.6053 14.31760127905160
LO-19
1 20442U 90005G   07143.95310449  .00000034  00000-0  27651-4 0 09684
2 20442 098.1794 149.2298 0010846 258.5876 101.4098 14.32000874905227
AO-27
1 22825U 93061C   07143.97498399 -.00000095  00000-0 -20933-4 0 06917
2 22825 098.3281 114.9141 0008274 341.2864 018.7999 14.29208166712037
IO-26
1 22826U 93061D   07143.46649631 -.00000005  00000-0  14254-4 0 03881
2 22826 098.3228 115.5102 0008654 339.7767 020.3071 14.29454604712040
PO-28
1 22829U 93061G   07144.41405795 -.00000070  00000-0 -10856-4 0  6656
2 22829 098.3105 117.5850 0008995 307.4994 052.5371 14.30154430712418
GO-32
1 25397U 98043D   07144.25545889 -.00000119  00000-0 -34298-4 0  3089
2 25397 098.4149 192.5149 0000758 348.9267 011.1888 14.23124996460753
MO-46
1 26548U 00057D   07143.77512912  .00000121  00000-0  32708-4 0 08027
2 26548 064.5573 258.1850 0018712 199.7063 160.3318 14.83140188359928
NO-44
1 26931U 01043C   07143.67021513  .00000056  00000-0  54047-4 0 05945
2 26931 067.0519 210.6437 0007630 270.9373 089.0865 14.29485117294598
SO-50
1 27607U 02058C   07144.40092334 -.00000049  00000-0  14149-4 0  3191
2 27607 064.5570 157.2531 0051209 006.7122 353.4631 14.71258079237629
CO-55
1 27844U 03031E   07143.59238955  .00000051  00000-0  44023-4 0 00346
2 27844 098.7180 152.2312 0009938 157.0657 203.0956 14.20511767201985
CO-57
1 27848U 03031J   07144.52561778  .00000035  00000-0  36552-4 0  9941
2 27848 098.7177 152.3556 0009833 157.9676 202.1922 14.20330827202092
AO-51
1 28375U 04025K   07143.63276048  .00000026  00000-0  20906-4 0 08221
2 28375 098.1144 184.2146 0083133 257.3817 101.8070 14.40567564152187
CO-56
1 28941U 06005C   07144.60224168  .00023264  25189-5  24227-3 0  4464
2 28941 098.1304 203.0748 0227755 356.9867 003.0132 15.39243912 69808
HO-59
1 29484U 06041F   07144.61948693  .00064932  35845-5  45025-3 0  3504
2 29484 098.2848 190.8257 0212218 350.9063 008.8655 15.49975643 37423
NO-60
1 29661U 06055C   07144.78377389  .00957892  11898-4  42708-3 0  2929
2 29661 051.6307 206.1898 0007522 333.4455 026.6230 16.21471453 24688
NO-61
1 29664U 06055F   07144.24296690  .00037559  11639-4  13184-3 0  1778
2 29664 051.6311 218.4966 0012128 255.4084 104.5586 15.90113914 24340
CP4
1 31122U 07012F   07143.63809016  .00000599  00000-0  14251-3 0 00425
2 31122 098.0853 217.7085 0087415 101.6623 259.4391 14.55003629005281
CP3
1 31128U 07012M   07143.71733811 -.00000046  00000-0  00000 0 0   341
2 31128 098.0809 217.6033 0104154 101.1594 260.1343 14.51833536  5271
LIBERT
1 31129U 07012N   07144.19764924  .00000386  00000-0  10000-3 0   985
2 31129 098.0831 218.0696 0103830 099.6737 261.6200 14.51921599  5328
NOAA-10
1 16969U 86073A   07143.90800491 -.00000009  00000-0  14627-4 0 06688
2 16969 098.7455 161.0758 0011520 236.8469 123.1583 14.27325133075765
NOAA-11
1 19531U 88089A   07143.73365416  .00000130  00000-0  89872-4 0 06632
2 19531 098.8111 233.2008 0012651 100.0063 260.2546 14.14845968962699
NOAA-12
1 21263U 91032A   07143.94753741  .00000097  00000-0  59882-4 0 01606
2 21263 098.7523 141.2304 0012899 173.4545 186.6819 14.25527762832792
MET-3/5
1 21655U 91056A   07143.93808667  .00000051  00000-0  10000-3 0 03402
2 21655 082.5526 020.0739 0012283 272.5864 087.3852 13.17011022758214
MET-2/21
1 22782U 93055A   07143.85421310  .00000038  00000-0  21255-4 0 08340
2 22782 082.5487 061.2182 0021293 307.8430 052.0816 13.83616051693159
OKEAN-4
1 23317U 94066A   07143.88204014  .00000383  00000-0  44648-4 0 02709
2 23317 082.5376 319.2119 0021596 337.5501 022.4776 14.82503935680453
NOAA-14
1 23455U 94089A   07143.87452776  .00000345  00000-0  20633-3 0 06446
2 23455 098.9886 209.9273 0009851 163.8788 196.2698 14.13720725639208
SICH-1
1 23657U 95046A   07143.90605572  .00000168  00000-0  18343-4 0 00748
2 23657 082.5270 100.1275 0023250 327.4046 032.5739 14.81483937632438
NOAA-15
1 25338U 98030A   07143.73072241  .00000176  00000-0  94133-4 0 00036
2 25338 098.5302 141.1046 0011855 100.7562 259.4937 14.24642715469204
RESURS
1 25394U 98043A   07144.67200770  .00000021  00000-0  27185-4 0  6472
2 25394 098.4404 200.1298 0000562 281.9581 078.1530 14.24136398461009
FENGYUN1
1 25730U 99025A   07144.53574128  .00000730  00000-0  45757-3 0  1211
2 25730 098.6884 129.3020 0020462 191.0143 169.0601 14.07493373414140
OKEAN-0
1 25860U 99039A   07143.58103555  .00000043  00000-0  13899-4 0   596
2 25860 097.7303 146.9815 0001972 081.9083 278.2357 14.73452715421879
NOAA-16
1 26536U 00055A   07143.75025319 -.00000038  00000-0  44224-5 0 04166
2 26536 099.1154 120.2687 0009759 239.9634 120.0535 14.12427634343656
NOAA-17
1 27453U 02032A   07143.85384029  .00000117  00000-0  69544-4 0 04291
2 27453 098.5795 213.7376 0012339 160.6322 199.5300 14.23880693255253
NOAA-18
1 28654U 05018A   07143.86100683 -.00000110  00000-0 -36688-4 0 09636
2 28654 098.8281 085.5532 0014119 341.6970 018.3682 14.11064645103427
HUBBLE
1 20580U 90037B   07143.92606183  .00000415  00000-0  19401-4 0 08970
2 20580 028.4679 348.3305 0004022 201.4140 158.6280 15.00240380736312
UARS
1 21701U 91063B   07143.93701229  .00005223  00000-0  89677-4 0 00846
2 21701 056.9746 059.1619 0097283 142.4792 218.3107 15.47960052861993
PO-34
1 25520U 98064B   07143.76791238  .00000519  00000-0  15896-4 0 07445
2 25520 028.4601 272.1862 0004819 350.2093 009.8409 15.16996018473818
ISS
1 25544U 98067A   07144.93219907  .00049989  00000-0  29013-3 0  2682
2 25544 051.6338 224.0728 0008032 233.9330 115.2632 15.77970838487092
OO-38
1 26063U 00004C   07143.57061009 -.00000028  00000-0  10975-4 0 09171
2 26063 100.2274 141.6470 0036508 228.5267 131.2765 14.35805488383524
UWE-1
1 28892U 05043C   07144.35383507  .00000168  00000-0  45062-4 0  7546
2 28892 098.1337 041.4673 0017350 183.4146 176.6943 14.59504184 83738
CO-58
1 28895U 05043F   07143.64772871  .00000238  00000-0  59817-4 0 07345
2 28895 098.1354 040.9783 0017854 185.4023 174.7000 14.59552052083517
NCUBE2
1 28897U 05043H   07144.27364155  .00000149  00000-0  40880-4 0  2592
2 28897 098.1338 041.5509 0016997 185.2502 174.8519 14.59713733 75883
NMARS
1 29662U 06055D   07126.39603970  .07031946  12599-4  11450-3 0  2632
2 29662 051.6121 302.3682 0004459 252.1654 110.7411 16.47981436 21652
FCAL
1 29667U 06055J   07144.41190552  .00019714  00000-0  75445-4 0  1475
2 29667 051.6328 218.9101 0013850 254.3184 105.6294 15.87350907 24225
FALCON
1 30776U 07006E   07144.80038395  .00000323  00000-0  26803-4 0   585
2 30776 035.4348 354.4344 0001923 283.1471 076.9030 15.02707000 11537
MAST
1 31126U 07012K   07143.74844914  .00000395  00000-0  10000-3 0   395
2 31126 098.0833 217.7197 0096158 101.0470 260.1512 14.53341359  5305
CAPE1
1 31130U 07012P   07143.71690970  .00000140  00000-0  43010-4 0 00293
2 31130 098.0840 217.6049 0104301 101.3192 259.9737 14.51851759005063
/EX






More information about the Keps mailing list